Weather observations for the past three days for
Iron Mountain / Kingsford, Ford Airport
Imperial (Metric)
Date Time (cdt) Wind (mph) Vis. (mi.) Weather Sky Cond. Temperature (ºF) Relative Humidity Wind Chill (°F) Heat Index (°F) Pressure Precipitation (in)
Air Dwpt 6 hour altimeter (in) sea level (mb) 1 hr 3 hr 6 hr
Max. Min.
17 10:54 NW 15 G 25 10.00 Overcast OVC033 63 48.9 60% 30 1016.0
17 09:54 NW 12 10.00 Overcast FEW021 SCT026 OVC037 60.1 51.1 72% 29.99 1015.7
17 08:54 NW 12 G 22 10.00 Overcast FEW019 SCT037 OVC044 61 52 72% 29.98 1015.0
17 07:54 NW 12 10.00 A Few Clouds FEW016 60.1 52 75% 29.95 1014.2
17 06:54 NW 8 10.00 Fair CLR 57 53.1 59 55 87% 29.94 1013.8
17 05:54 NW 5 10.00 Fair CLR 55.9 52 87% 29.92 1013.1
17 04:54 NW 7 10.00 Fair CLR 55 52 90% 29.91 1012.6
17 03:54 NW 7 10.00 Fair CLR 55 51.1 87% 29.89 1012.0
17 02:54 NW 5 10.00 Fair CLR 55.9 51.1 84% 29.88 1011.5
17 01:54 NW 6 10.00 Overcast OVC090 59 52 78% 29.88 1011.4
17 00:54 Calm 10.00 Mostly Cloudy BKN090 57 51.1 73 54 81% 29.87 1011.5
16 23:54 Calm 10.00 Fair CLR 55 50 83% 29.88 1011.5
16 22:54 Calm 10.00 Fair CLR 57.9 51.1 78% 29.86 1011.1
16 21:54 N 3 10.00 Fair CLR 60.1 51.1 72% 29.86 1010.8
16 20:54 NW 7 10.00 Fair CLR 66 52 61% 29.85 1010.5
16 19:54 NW 9 10.00 A Few Clouds FEW090 71.1 54 55% 29.84 1010.2
16 18:54 NW 7 10.00 Overcast BKN065 OVC090 73 55.9 81 68 55% 29.82 1009.6
16 17:54 NW 9 10.00 Mostly Cloudy BKN070 75 57 54% 78 29.83 1009.7
16 16:54 NW 7 10.00 Partly Cloudy SCT090 75 59 58% 77 29.82 1009.7
16 15:54 W 12 G 18 10.00 A Few Clouds FEW110 79 53.1 41% 79 29.8 1008.8
16 14:54 NW 12 G 21 10.00 Light Rain SCT060 OVC085 75 55 50% 78 29.79 1008.6
16 13:54 W 10 G 21 10.00 Fair CLR 80.1 53.1 39% 80 29.78 1007.9
16 12:54 NW 10 10.00 Partly Cloudy SCT046 SCT055 77 55 79 61 47% 78 29.79 1008.5
16 11:54 NW 10 G 18 10.00 Partly Cloudy SCT041 77 57 50% 79 29.8 1008.7
16 10:54 NW 12 10.00 A Few Clouds FEW024 73.9 59 60% 29.79 1008.5
16 09:54 N 13 10.00 Partly Cloudy SCT019 SCT024 71.1 59 66% 29.79 1008.5
16 08:54 NW 10 10.00 A Few Clouds FEW013 68 59 73% 29.77 1007.8
16 07:54 NW 8 10.00 Overcast OVC008 63 57.9 84% 29.76 1007.5
16 06:54 NW 12 10.00 Fair CLR 62.1 57.9 66.9 60.1 86% 29.75 1007.0
16 05:54 NW 7 10.00 Fair CLR 60.1 57.9 93% 29.75 1007.1
16 04:54 NW 9 10.00 Fair CLR 61 57.9 90% 29.73 1006.5
16 03:54 NW 7 10.00 A Few Clouds FEW015 62.1 59 90% 29.73 1006.5
16 02:54 N 9 10.00 A Few Clouds FEW013 63 59 87% 29.72 1005.9
16 01:54 NW 8 10.00 A Few Clouds FEW013 64.9 60.1 84% 29.72 1005.8
16 00:54 NW 9 10.00 Mostly Cloudy BKN015 66.9 62.1 80.1 66.9 84% 29.7 1005.2
15 23:54 N 8 10.00 Mostly Cloudy BKN012 69.1 64.9 87% 29.67 1004.2
15 22:54 NW 9 10.00 Mostly Cloudy BKN011 69.1 64.9 87% 29.68 1004.4
15 21:54 NW 5 10.00 Fair CLR 71.1 64.9 81% 29.67 1004.2
15 20:54 N 9 10.00 Partly Cloudy SCT050 73 66 79% 29.67 1004.3
15 19:54 NW 9 10.00 Partly Cloudy SCT055 75.9 64.9 69% 78 29.65 1003.5
15 18:54 NW 9 10.00 Mostly Cloudy SCT065 BKN080 79 64 88 79 60% 81 29.65 1003.7
15 17:54 SW 9 G 20 10.00 Partly Cloudy SCT070 SCT080 SCT110 82 66 58% 84 29.65 1003.7
15 16:54 S 8 10.00 Thunderstorm in Vicinity FEW080 82 69.1 65% 85 29.67 1004.1
15 15:54 S 6 G 17 10.00 Mostly Cloudy FEW050 BKN065 BKN080 82 68 63% 85 29.69 1005.0
15 14:54 S 8 10.00 Mostly Cloudy FEW050 FEW060 BKN090 84.9 64 50% 86 29.71 1005.5
15 13:54 Vrbl 5 10.00 Mostly Cloudy SCT055 BKN070 84.9 62.1 46% 85 29.74 1006.3
15 12:54 SW 6 10.00 Fair CLR 84.9 60.1 84.9 64.9 43% 85 29.77 1007.6
15 11:54 Vrbl 5 10.00 Fair CLR 82.9 57 41% 82 29.8 1008.7
15 10:54 W 5 10.00 Fair CLR 80.1 59 49% 81 29.82 1009.1
15 09:54 Vrbl 3 10.00 Fair CLR 78.1 60.1 54% 79 29.82 1009.2
15 08:54 Calm 10.00 Fair CLR 73.9 61 64% 29.83 1009.6
15 07:54 NW 5 10.00 Fair CLR 69.1 60.1 73% 29.84 1010.0
15 06:54 Calm 10.00 Fair CLR 64.9 61 66 57.9 87% 29.83 1009.7
15 05:54 Calm 1.50 Fog/Mist FEW002 60.1 57.9 93% 29.83 1009.6
15 04:54 Calm 6.00 Fog/Mist CLR 61 60.1 97% 29.83 1009.4
15 03:54 Calm 10.00 Fair CLR 62.1 60.1 93% 29.81 1008.9
15 02:54 NW 8 10.00 Fair CLR 64.9 62.1 90% 29.8 1008.6
15 01:54 N 5 10.00 A Few Clouds FEW037 64 61 90% 29.82 1009.2
15 00:54 N 3 10.00 Fair CLR 66 62.1 86 64 87% 29.83 1009.4
14 23:54 N 3 10.00 Fair CLR 64.9 62.1 90% 29.82 1009.3
14 22:54 Calm 10.00 Fair CLR 68 64 87% 29.83 1009.7
14 21:54 Calm 10.00 A Few Clouds FEW055 72 64 76% 29.84 1009.8
14 20:54 NW 3 10.00 Mostly Cloudy FEW050 SCT095 BKN110 73.9 64 71% 29.84 1010.1
14 19:54 NW 8 10.00 Fair CLR 77 61 58% 79 29.83 1009.6
14 18:54 W 9 10.00 Mostly Cloudy SCT060 BKN090 BKN110 86 64.9 91 86 49% 88 29.82 1009.2
14 17:54 SW 6 10.00 A Few Clouds FEW060 90 64.9 44% 92 29.8 1008.3
14 16:54 W 8 10.00 Fair CLR 90 64 42% 91 29.79 1008.2
14 15:54 W 9 10.00 Fair CLR 89.1 64 43% 90 29.8 1008.7
14 14:54 Vrbl 6 10.00 Mostly Cloudy BKN048 88 66 48% 90 29.82 1009.0
14 13:54 W 5 10.00 Fair CLR 88 64.9 46% 90 29.82 1009.2
14 12:54 W 9 10.00 Fair CLR 86 66 86 68 51% 88 29.84 1009.9
14 11:54 W 12 10.00 Fair CLR 86 64.9 49% 88 29.86 1010.4
Date Time (cdt) Wind (mph) Vis. (mi.) Weather Sky Cond. Air Dwpt Max. Min. Relative Humidity Wind Chill (°F) Heat Index (°F) altimeter (in) sea level (mb) 1 hr 3 hr 6 hr
6 hour
Temperature (ºF) Pressure Precipitation (in)